Simultaneous Nadir Overpasses (SNOs) Predictions

Prediction of SNOs between GOES-16 and NOAA-20 Satellite Orbit:

Table of predicted SNOs for the next 14.0 days since TLE Epoch: 7/16/2022
Index Date Time (GOES-16) GOES-16 Lat,Lon NOAA-20 Lat,Lon Distance(km) Time Diff (sec)
1 07/16/2022 18:10:41 -0.04, -75.20 0.85, -71.18 457.94 80
2 07/18/2022 06:32:29 0.04, -75.21 0.29, -76.45 141.53 80
3 07/19/2022 06:11:03 0.04, -75.22 -0.71, -71.92 376.02 80
4 07/20/2022 18:32:58 -0.03, -75.23 -0.46, -77.22 226.23 80
5 07/21/2022 18:16:53 -0.03, -75.25 0.55, -72.69 291.75 80
6 07/23/2022 06:38:39 0.03, -75.27 0.65, -77.95 306.52 80
7 07/24/2022 06:17:15 0.03, -75.28 -0.42, -73.43 211.52 80
8 07/25/2022 18:39:10 0.02, -75.30 -0.75, -78.73 391.28 80
9 07/26/2022 18:23:05 0.02, -75.32 0.26, -74.20 127.27 80
10 07/28/2022 06:44:52 -0.02, -75.35 0.88, -79.48 469.85 80
11 07/29/2022 06:23:26 -0.01, -75.37 -0.13, -74.94 49.00 80
